Showing default

NVS-02, 62850

Orbit data source: Space-Track

NVS-02, 62850 is a payload satellite owned by ISRO (IN) in HEO that was launched on Wed, 29 Jan 2025 UTC via a GSLV MK II launch vehicle from the Sirharikota (SRI). Payloads include a variety of satellites, spacecraft, and rockets equipped with specific instruments for various scientific and technological missions. These include communications satellites like Starlink; space stations such as the ISS; scientific satellites like the Hubble; Earth observation satellites from companies like Planet Labs, Umbra, and HawkEye 360; GPS; miniature CubeSats for education and research; and military/defense satellites.

Loading next visibility...
NVS-02 details
Identifier
62850, 2025-020A
Orbit
HEO
Last TLE update1 day ago
Origin
Flag of INISRO (IN / IND)
ManufacturerISRO
MissionPartially operational spacecraft
Bus & MotorI2K, ISRO LAM
Mass2,232 kg wet, ~1,000 kg dry
Launch date (UTC)
2025-01-29 (3 weeks ago)
Launch vehicle
GSLV MK II
Launch site
Sirharikota (SRI)
Object type
Payload
Rocket body
Debris
Shape & HBRUnknown
Radar Cross SectionLarge (>1 m²)

Expand to show TLE details & history

TLE from 1 day ago
0 NVS-02
1 62850U 25020A   25046.30758982  .00007047 -42547-6  27433-3 0  9998
2 62850  20.8442  76.4453 7401586 189.6049 138.0183  2.16815147   380
Epoch: 2025-02-15T07:22Z
Definitive object data (Epoch: 2025-02-15T07:22:55.76Z)
Latitude-0.00001°
Longitude-179.81592°
Altitude35,793.775 km
Speed1.76 km/s
True Right ascension05h 05m 53s
True Declination0° 00' 00"
Sunlit
Object was in daylight at TLE epoch
Visualization TLE readout
Latitude17.34945°
Longitude-54.99108°
Altitude2,489.695 km
Speed8.608 km/s
Apparent Right ascension11h 45m 51s
Apparent Declination-18° 26' 39"
Sunlit
Object is in daylight
Visualization observer readout
Local Sidereal Time14:52:00
Azimuth226.152° WSW
Elevation17.307°
Doppler factor1
Orbital elements
Apogee altitude37,509.75 km
Perigee altitude175.225 km
Semi-major axis25,220.625 km
Eccentricity0.7401586
Inclination20.8442°
RAAN76.4453°
Arg. of periapsis189.6049°
True anomaly170.43334°
Mean anomaly138.0183°
Eccentric anomaly155.56249°
Mean motion0.54189 °/min
BSTAR0.00027433
Orbital period664.34 mins
Loading maneuver chart data...
Loading historical data...
Loading historical data...
Loading historical data...
Loading historical data...
Loading historical data...
Loading historical data...
Loading historical data...
Other satellites on launch #20 in the year 2025 (2025-01-29 UTC)

NVS-02 Visibility forecast

Observer location: undefined°, undefined

Span
Click to sort rows by Start time (UTC) header in descending order
Start Az.
Max El. time (UTC)
Max El. Az.
Max El.
End time (UTC)
End Az.
4 mins2025-02-16 12:05:32.219Z226.052° WSW2025-02-16 12:05:32.219Z226.052° WSW16.497°2025-02-16 12:09:32.219Z200.413° SSW
600 mins2025-02-17 00:16:32.219Z201.056° SSW2025-02-17 10:04:32.219Z216.75° SW33.632°2025-02-17 10:16:32.219Z149.635° SSE
|